Olive Branch, MS

4:30 PM CDT on April 28, 2017 (GMT -0500)
Olive Branch

Weather History for KOLV - April, 2014

Change the Weather History Date:

Saturday, April 26, 2014

  Actual Average (KMEM) Record (KMEM)
Temperature  
Mean Temperature 65 °F -  
Max Temperature 80 °F 75 °F 89 °F (1989)
Min Temperature 50 °F 54 °F 38 °F (1919)
Growing Degree Days 15 (Base 50)    
Moisture  
Dew Point 50 °F    
Average Humidity 68    
Maximum Humidity 94    
Minimum Humidity 37    
Precipitation  
Precipitation 0.00 in - - ()
Sea Level Pressure  
Sea Level Pressure 29.93 in    
Wind  
Wind Speed 3 mph (SSE)    
Max Wind Speed 13 mph    
Max Gust Speed 18 mph    
Visibility 10 miles    
Events      
Averages and records for this station are not official NWS values.
T = Trace of Precipitation, MM = Missing Value Source: NWS Daily Summary

Daily Weather History Graph

Daily Weather History Graph

Search for Another Location

Airport or City:

Trip Planner

Search our weather history database for the weather conditions in past years. The results will help you decide how hot, cold, wet, or windy it might be!

Date:

Astronomy

Apr. 26, 2014 Rise Set
Actual Time 6:13 AM CDT 7:40 PM CDT
Civil Twilight 5:47 AM CDT 8:07 PM CDT
Nautical Twilight 5:15 AM CDT 8:39 PM CDT
Astronomical Twilight 4:41 AM CDT 9:13 PM CDT
Moon 4:31 AM CDT (4/26) 5:14 PM CDT (4/26)
Length of Visible Light 14h 20m
Length of Day
13h 26m
Waning Crescent, 8% of the Moon is Illuminated
Apr 26
Waning Crescent
Apr 29
New
May 6
First Quarter
May 14
Full
May 21
Last Quarter

Hourly Weather History & Observations

Time (CDT) Temp. Heat Index Dew Point Humidity Pressure Visibility Wind Dir Wind Speed Gust Speed Precip Events Conditions
12:15 AM 55.4 °F - 48.2 °F 77% 29.98 in 10.0 mi Calm Calm - 0.00 in   Clear
12:35 AM 55.4 °F - 48.2 °F 77% 29.98 in 9.0 mi Calm Calm - 0.00 in   Clear
12:55 AM 55.4 °F - 48.2 °F 77% 29.98 in 10.0 mi Calm Calm - 0.00 in   Clear
1:15 AM 53.6 °F - 48.2 °F 82% 29.97 in 10.0 mi Calm Calm - 0.00 in   Clear
1:35 AM 53.6 °F - 48.2 °F 82% 29.97 in 10.0 mi Calm Calm - 0.00 in   Clear
1:55 AM 51.8 °F - 48.2 °F 88% 29.97 in 10.0 mi Calm Calm - 0.00 in   Clear
2:15 AM 53.6 °F - 48.2 °F 82% 29.96 in 10.0 mi Calm Calm - 0.00 in   Clear
2:35 AM 51.8 °F - 48.2 °F 88% 29.96 in 8.0 mi Calm Calm - 0.00 in   Clear
2:55 AM 51.8 °F - 50.0 °F 94% 29.95 in 10.0 mi Calm Calm - 0.00 in   Clear
3:15 AM 51.8 °F - 50.0 °F 94% 29.95 in 10.0 mi Calm Calm - 0.00 in   Clear
3:35 AM 51.8 °F - 50.0 °F 94% 29.95 in 10.0 mi Calm Calm - 0.00 in   Clear
3:55 AM 51.8 °F - 48.2 °F 88% 29.95 in 9.0 mi Calm Calm - 0.00 in   Clear
4:15 AM 50.0 °F - 48.2 °F 94% 29.95 in 10.0 mi Calm Calm - 0.00 in   Clear
4:35 AM 50.0 °F - 48.2 °F 94% 29.94 in 10.0 mi Calm Calm - 0.00 in   Clear
4:55 AM 51.8 °F - 46.4 °F 82% 29.95 in 9.0 mi Calm Calm - 0.00 in   Clear
5:15 AM 51.8 °F - 46.4 °F 82% 29.95 in 9.0 mi Calm Calm - 0.00 in   Clear
5:35 AM 51.8 °F - 44.6 °F 76% 29.95 in 10.0 mi SSE 4.6 mph - 0.00 in   Clear
5:55 AM 51.8 °F - 46.4 °F 82% 29.95 in 10.0 mi Calm Calm - 0.00 in   Clear
6:15 AM 50.0 °F - 46.4 °F 87% 29.95 in 10.0 mi Calm Calm - 0.00 in   Clear
6:35 AM 50.0 °F - 46.4 °F 87% 29.96 in 10.0 mi Calm Calm - N/A   Clear
6:50 AM 51.8 °F - 46.4 °F 82% 29.96 in 10.0 mi Calm Calm - N/A   Scattered Clouds
7:50 AM 59.0 °F - 48.2 °F 67% 29.98 in 10.0 mi Calm Calm - N/A   Scattered Clouds
8:50 AM 59.0 °F - 48.2 °F 67% 29.99 in 10.0 mi SSE 11.5 mph - N/A   Partly Cloudy
9:50 AM 69.8 °F - 53.6 °F 56% 29.99 in 10.0 mi SSE 10.4 mph - N/A   Partly Cloudy
10:50 AM 73.4 °F - 55.4 °F 53% 29.99 in 10.0 mi South 12.7 mph 18.4 mph N/A   Partly Cloudy
11:50 AM 75.2 °F - 55.4 °F 50% 29.98 in 10.0 mi South 11.5 mph - N/A   Mostly Cloudy
12:50 PM 77.0 °F - 53.6 °F 44% 29.96 in 10.0 mi SSE 6.9 mph - N/A   Scattered Clouds
1:50 PM 78.8 °F - 53.6 °F 42% 29.94 in 10.0 mi South 11.5 mph - N/A   Scattered Clouds
2:50 PM 80.6 °F 80.3 °F 53.6 °F 39% 29.93 in 10.0 mi South 11.5 mph - N/A   Scattered Clouds
3:50 PM 80.6 °F - 51.8 °F 37% 29.90 in 10.0 mi South 8.1 mph - N/A   Scattered Clouds
4:50 PM 80.6 °F - 51.8 °F 37% 29.89 in 10.0 mi South 8.1 mph - N/A   Partly Cloudy
5:50 PM 78.8 °F - 51.8 °F 39% 29.88 in 10.0 mi South 8.1 mph - N/A   Partly Cloudy
6:50 PM 75.2 °F - 51.8 °F 44% 29.87 in 10.0 mi South 8.1 mph - N/A   Partly Cloudy
7:50 PM 71.6 °F - 48.2 °F 43% 29.87 in 10.0 mi South 8.1 mph - N/A   Partly Cloudy
8:55 PM 68.0 °F - 50.0 °F 52% 29.88 in 5.0 mi SSE 3.5 mph - N/A   Clear
9:15 PM 68.0 °F - 50.0 °F 52% 29.88 in 10.0 mi South 4.6 mph - 0.00 in   Clear
9:35 PM 66.2 °F - 50.0 °F 56% 29.88 in 10.0 mi SSE 5.8 mph - 0.00 in   Clear
9:55 PM 66.2 °F - 50.0 °F 56% 29.88 in 8.0 mi SSE 5.8 mph - 0.00 in   Clear
10:15 PM 66.2 °F - 51.8 °F 60% 29.88 in 10.0 mi SSE 5.8 mph - 0.00 in   Clear
10:35 PM 66.2 °F - 51.8 °F 60% 29.88 in 10.0 mi SSE 6.9 mph - 0.00 in   Clear
10:55 PM 68.0 °F - 53.6 °F 60% 29.87 in 10.0 mi SSE 6.9 mph - 0.00 in   Clear
11:15 PM 68.0 °F - 53.6 °F 60% 29.86 in 7.0 mi SSE 6.9 mph - 0.00 in   Clear
11:35 PM 68.0 °F - 53.6 °F 60% 29.86 in 10.0 mi SE 8.1 mph - 0.00 in   Clear
11:55 PM 68.0 °F - 55.4 °F 64% 29.85 in 8.0 mi SE 8.1 mph - 0.00 in   Clear